Location: �terpigny
(49.8910°N, 2.9249°E)
Time: 10:35:32
(UTC+00:00)

DIWATA 2B (PO-101) - Pass Details

Date: 28 June 2022
Orbit: 583 x 599 km, 98.0° (Epoch: 14 August)

Event Time Altitude Azimuth Distance (km) Brightness Sun altitude
Rises 23:46:43 0° 105° (ESE) 2,842 ? -16.9°
Reaches altitude 10° 23:50:32 10° 70° (ENE) 1,947 ? -16.9°
Maximum altitude 23:51:37 11° 54° (NE) 1,889 ? -16.9°
Drops below altitude 10° 23:52:43 10° 39° (NE) 1,951 ? -16.9°
Sets 23:56:33 0° 4° (N) 2,860 ? -16.9°
